| time (UTC) | temp F | wind direction | speed knots | gust knots | rain 1hr in | rain 24hr in | rain mn in | humidity % | barometer mb |
| 20260507005007 | 47 | 1 | 1.7 | 13.0 | 0.00 | 0.43 | 0.42 | 84 | 1008.6 |
| 20260507004006 | 47 | 1 | 0.9 | 5.2 | 0.00 | 0.44 | 0.42 | 84 | 1008.6 |
| 20260507003007 | 48 | 0 | 0.0 | 7.8 | 0.00 | 0.44 | 0.42 | 84 | 1008.7 |
| 20260507002007 | 48 | 0 | 0.0 | 4.3 | 0.00 | 0.44 | 0.42 | 83 | 1008.6 |
| 20260507000006 | 48 | 1 | 0.9 | 7.0 | 0.00 | 0.44 | 0.42 | 82 | 1008.4 |
| 20260506235007 | 48 | 0 | 0.0 | 7.8 | 0.00 | 0.44 | 0.42 | 83 | 1008.4 |
| 20260506234007 | 48 | 0 | 0.0 | 6.1 | 0.00 | 0.44 | 0.42 | 81 | 1008.2 |
| 20260506233007 | 48 | 212 | 0.9 | 9.6 | 0.00 | 0.44 | 0.42 | 81 | 1008.1 |
| 20260506232007 | 48 | 214 | 0.9 | 10.4 | 0.00 | 0.44 | 0.42 | 79 | 1008.1 |
| 20260506231007 | 49 | 210 | 0.9 | 7.8 | 0.00 | 0.45 | 0.42 | 79 | 1008.1 |
| 20260506230007 | 49 | 224 | 0.9 | 6.1 | 0.00 | 0.45 | 0.42 | 77 | 1008.0 |
| 20260506225007 | 49 | 211 | 0.9 | 10.4 | 0.00 | 0.45 | 0.42 | 74 | 1008.1 |
| 20260506224006 | 49 | 204 | 0.9 | 7.8 | 0.00 | 0.45 | 0.42 | 74 | 1008.0 |
| 20260506223006 | 49 | 0 | 0.0 | 7.8 | 0.00 | 0.45 | 0.42 | 75 | 1008.0 |
| 20260506222007 | 49 | 205 | 0.9 | 6.1 | 0.00 | 0.45 | 0.42 | 73 | 1007.9 |
| 20260506221006 | 49 | 0 | 0.0 | 7.8 | 0.00 | 0.45 | 0.42 | 73 | 1008.0 |
| 20260506220006 | 49 | 0 | 0.0 | 6.1 | 0.00 | 0.45 | 0.42 | 75 | 1007.9 |
| 20260506215007 | 49 | 240 | 0.9 | 5.2 | 0.00 | 0.45 | 0.42 | 72 | 1008.0 |
| 20260506214007 | 49 | 0 | 0.0 | 2.6 | 0.00 | 0.45 | 0.42 | 73 | 1008.0 |
| 20260506213006 | 49 | 241 | 0.9 | 7.8 | 0.00 | 0.45 | 0.42 | 73 | 1007.8 |
| 20260506211007 | 49 | 0 | 0.0 | 4.3 | 0.00 | 0.45 | 0.42 | 73 | 1007.7 |
| 20260506210007 | 49 | 0 | 0.0 | 6.1 | 0.00 | 0.45 | 0.42 | 74 | 1007.7 |
| 20260506205006 | 49 | 0 | 0.0 | 0.9 | 0.00 | 0.45 | 0.42 | 75 | 1007.8 |
| 20260506203006 | 49 | 0 | 0.0 | 4.3 | 0.00 | 0.45 | 0.42 | 75 | 1008.0 |
| 20260506202006 | 49 | 0 | 0.0 | 0.9 | 0.00 | 0.45 | 0.42 | 76 | 1007.7 |
| 20260506201007 | 49 | 0 | 0.0 | 1.7 | 0.00 | 0.45 | 0.42 | 77 | 1007.7 |
| 20260506200006 | 49 | 0 | 0.0 | 0.0 | 0.00 | 0.45 | 0.42 | 74 | 1007.8 |
| 20260506195007 | 48 | 0 | 0.0 | 0.0 | 0.00 | 0.45 | 0.42 | 76 | 1007.9 |
| 20260506194007 | 48 | 0 | 0.0 | 0.0 | 0.00 | 0.45 | 0.42 | 78 | 1007.9 |
| 20260506193006 | 47 | 0 | 0.0 | 0.0 | 0.00 | 0.45 | 0.42 | 78 | 1007.9 |
| 20260506192006 | 47 | 0 | 0.0 | 0.0 | 0.00 | 0.45 | 0.42 | 81 | 1008.0 |
| 20260506191007 | 46 | 0 | 0.0 | 0.0 | 0.00 | 0.45 | 0.42 | 81 | 1008.1 |
| 20260506190006 | 46 | 0 | 0.0 | 0.9 | 0.00 | 0.45 | 0.42 | 83 | 1008.2 |
| 20260506185007 | 46 | 0 | 0.0 | 0.0 | 0.00 | 0.45 | 0.42 | 85 | 1008.1 |
| 20260506184007 | 46 | 0 | 0.0 | 0.0 | 0.00 | 0.45 | 0.42 | 85 | 1008.2 |
| 20260506183006 | 46 | 0 | 0.0 | 0.0 | 0.00 | 0.45 | 0.42 | 86 | 1008.2 |
| 20260506182006 | 46 | 0 | 0.0 | 0.0 | 0.00 | 0.45 | 0.42 | 85 | 1008.1 |
| 20260506181006 | 46 | 0 | 0.0 | 0.0 | 0.00 | 0.45 | 0.42 | 85 | 1008.1 |
| 20260506180006 | 46 | 0 | 0.0 | 0.0 | 0.00 | 0.45 | 0.42 | 86 | 1008.3 |
| 20260506175007 | 45 | 0 | 0.0 | 0.0 | 0.00 | 0.45 | 0.42 | 89 | 1008.4 |
| 20260506174006 | 45 | 0 | 0.0 | 0.0 | 0.00 | 0.45 | 0.42 | 88 | 1008.3 |
| 20260506172007 | 45 | 0 | 0.0 | 0.0 | 0.00 | 0.45 | 0.42 | 89 | 1008.1 |
| 20260506171006 | 44 | 0 | 0.0 | 0.0 | 0.00 | 0.45 | 0.42 | 88 | 1008.0 |
| 20260506170006 | 44 | 0 | 0.0 | 0.0 | 0.00 | 0.45 | 0.42 | 87 | 1007.9 |
| 20260506165007 | 44 | 0 | 0.0 | 0.0 | 0.00 | 0.45 | 0.42 | 86 | 1007.9 |
| 20260506164006 | 44 | 0 | 0.0 | 0.0 | 0.00 | 0.45 | 0.42 | 86 | 1008.2 |
| 20260506163007 | 44 | 0 | 0.0 | 0.0 | 0.00 | 0.45 | 0.42 | 87 | 1008.2 |
| 20260506162006 | 44 | 0 | 0.0 | 0.0 | 0.00 | 0.45 | 0.42 | 88 | 1008.1 |
| 20260506161006 | 44 | 0 | 0.0 | 0.0 | 0.00 | 0.45 | 0.42 | 89 | 1008.3 |
| 20260506160006 | 43 | 0 | 0.0 | 0.0 | 0.01 | 0.45 | 0.42 | 88 | 1008.5 |
| 20260506155006 | 43 | 0 | 0.0 | 0.0 | 0.01 | 0.45 | 0.42 | 91 | 1008.5 |
| 20260506153007 | 43 | 0 | 0.0 | 0.0 | 0.01 | 0.45 | 0.42 | 91 | 1008.8 |
| 20260506152006 | 43 | 0 | 0.0 | 0.0 | 0.01 | 0.45 | 0.42 | 92 | 1008.7 |
| 20260506151006 | 43 | 0 | 0.0 | 0.0 | 0.01 | 0.45 | 0.42 | 92 | 1008.9 |
| 20260506150007 | 42 | 0 | 0.0 | 0.0 | 0.00 | 0.44 | 0.41 | 91 | 1008.6 |
| 20260506145006 | 42 | 0 | 0.0 | 0.0 | 0.01 | 0.44 | 0.41 | 91 | 1008.6 |
| 20260506144006 | 42 | 0 | 0.0 | 0.0 | 0.02 | 0.44 | 0.41 | 91 | 1008.8 |
| 20260506143006 | 42 | 0 | 0.0 | 0.0 | 0.02 | 0.44 | 0.41 | 92 | 1008.5 |
| 20260506142007 | 42 | 0 | 0.0 | 0.0 | 0.03 | 0.44 | 0.41 | 91 | 1008.3 |
| 20260506141006 | 42 | 0 | 0.0 | 0.0 | 0.04 | 0.44 | 0.41 | 92 | 1008.5 |
| 20260506140007 | 42 | 0 | 0.0 | 0.0 | 0.04 | 0.44 | 0.41 | 92 | 1008.5 |
| 20260506135006 | 42 | 0 | 0.0 | 0.0 | 0.04 | 0.43 | 0.40 | 92 | 1008.5 |
| 20260506134006 | 42 | 0 | 0.0 | 0.9 | 0.04 | 0.42 | 0.39 | 92 | 1008.4 |
| 20260506133007 | 42 | 0 | 0.0 | 0.0 | 0.05 | 0.42 | 0.39 | 93 | 1008.3 |
| 20260506132006 | 42 | 0 | 0.0 | 0.9 | 0.04 | 0.41 | 0.38 | 93 | 1008.4 |
| 20260506131006 | 42 | 0 | 0.0 | 0.0 | 0.04 | 0.40 | 0.37 | 94 | 1008.5 |
| 20260506130007 | 42 | 0 | 0.0 | 0.0 | 0.04 | 0.40 | 0.37 | 93 | 1008.6 |
| 20260506125006 | 42 | 0 | 0.0 | 0.0 | 0.04 | 0.39 | 0.36 | 94 | 1008.4 |
| 20260506124006 | 42 | 0 | 0.0 | 0.0 | 0.03 | 0.38 | 0.35 | 95 | 1008.5 |
| 20260506123007 | 42 | 0 | 0.0 | 0.0 | 0.02 | 0.37 | 0.34 | 95 | 1008.6 |
| 20260506122006 | 42 | 0 | 0.0 | 0.0 | 0.03 | 0.37 | 0.34 | 95 | 1008.6 |
| 20260506121006 | 42 | 0 | 0.0 | 0.0 | 0.02 | 0.36 | 0.33 | 95 | 1008.4 |
| 20260506114006 | 42 | 0 | 0.0 | 0.0 | 0.03 | 0.35 | 0.32 | 95 | 1008.3 |
| 20260506113006 | 42 | 0 | 0.0 | 0.0 | 0.04 | 0.35 | 0.32 | 95 | 1008.4 |
| 20260506112007 | 42 | 0 | 0.0 | 0.0 | 0.04 | 0.34 | 0.31 | 95 | 1008.5 |
| 20260506111006 | 42 | 0 | 0.0 | 0.0 | 0.05 | 0.34 | 0.31 | 95 | 1008.7 |
| 20260506110006 | 43 | 0 | 0.0 | 0.0 | 0.06 | 0.33 | 0.30 | 95 | 1008.6 |
| 20260506105006 | 42 | 0 | 0.0 | 0.0 | 0.07 | 0.32 | 0.29 | 95 | 1008.4 |
| 20260506104007 | 42 | 0 | 0.0 | 0.0 | 0.09 | 0.32 | 0.29 | 95 | 1008.5 |
| 20260506103006 | 42 | 0 | 0.0 | 0.0 | 0.10 | 0.31 | 0.28 | 95 | 1008.4 |
| 20260506102011 | 42 | 0 | 0.0 | 0.0 | 0.10 | 0.30 | 0.27 | 95 | 1008.5 |
| 20260506101007 | 42 | 0 | 0.0 | 0.0 | 0.10 | 0.28 | 0.25 | 94 | 1008.5 |
| 20260506100006 | 42 | 0 | 0.0 | 0.0 | 0.12 | 0.27 | 0.24 | 94 | 1008.5 |
| 20260506094006 | 42 | 0 | 0.0 | 0.0 | 0.12 | 0.23 | 0.20 | 94 | 1008.4 |
| 20260506093006 | 42 | 0 | 0.0 | 0.0 | 0.13 | 0.21 | 0.18 | 94 | 1008.3 |
| 20260506092006 | 43 | 0 | 0.0 | 0.0 | 0.15 | 0.20 | 0.17 | 94 | 1008.1 |
| 20260506091007 | 43 | 0 | 0.0 | 0.0 | 0.14 | 0.18 | 0.15 | 93 | 1008.2 |
| 20260506090006 | 43 | 0 | 0.0 | 0.0 | 0.12 | 0.15 | 0.12 | 93 | 1008.1 |
| 20260506085006 | 43 | 0 | 0.0 | 0.0 | 0.10 | 0.13 | 0.10 | 93 | 1008.5 |
| 20260506083006 | 44 | 0 | 0.0 | 1.7 | 0.05 | 0.08 | 0.05 | 92 | 1008.7 |
| 20260506082006 | 44 | 0 | 0.0 | 0.9 | 0.02 | 0.05 | 0.02 | 92 | 1008.9 |
| 20260506081006 | 44 | 0 | 0.0 | 5.2 | 0.00 | 0.03 | 0.00 | 91 | 1008.7 |
| 20260506073006 | 45 | 0 | 0.0 | 3.5 | 0.00 | 0.03 | 0.00 | 90 | 1008.3 |
| 20260506072006 | 44 | 0 | 0.0 | 4.3 | 0.00 | 0.03 | 0.00 | 90 | 1008.2 |
| 20260506071006 | 45 | 357 | 0.9 | 4.3 | 0.00 | 0.03 | 0.00 | 90 | 1008.2 |
| 20260506062006 | 45 | 0 | 0.0 | 7.0 | 0.00 | 0.03 | 0.00 | 91 | 1008.1 |
| 20260506061006 | 45 | 1 | 0.9 | 7.8 | 0.00 | 0.03 | 0.00 | 91 | 1008.1 |
| 20260506051006 | 46 | 340 | 0.9 | 9.6 | 0.00 | 0.03 | 0.00 | 90 | 1008.5 |
| 20260506043006 | 46 | 0 | 0.0 | 9.6 | 0.00 | 0.03 | 0.00 | 90 | 1008.5 |
| 20260506042006 | 46 | 252 | 0.9 | 6.1 | 0.00 | 0.03 | 0.00 | 89 | 1008.4 |
| 20260506041006 | 46 | 290 | 1.7 | 9.6 | 0.00 | 0.03 | 0.00 | 90 | 1008.4 |
| 20260506040008 | 46 | 274 | 2.6 | 11.3 | 0.00 | 0.03 | 0.00 | 89 | 1008.2 |
| 20260506035007 | 47 | 208 | 2.6 | 11.3 | 0.00 | 0.03 | 0.03 | 89 | 1008.1 |
| 20260506034006 | 47 | 206 | 1.7 | 11.3 | 0.00 | 0.03 | 0.03 | 89 | 1008.2 |
| 20260506033006 | 48 | 206 | 1.7 | 9.6 | 0.00 | 0.03 | 0.03 | 88 | 1008.3 |
| 20260506032006 | 48 | 352 | 0.9 | 9.6 | 0.00 | 0.03 | 0.03 | 88 | 1008.4 |
| 20260506031006 | 48 | 313 | 0.9 | 9.6 | 0.00 | 0.03 | 0.03 | 88 | 1008.5 |
| 20260506030005 | 48 | 236 | 0.9 | 7.8 | 0.00 | 0.03 | 0.03 | 89 | 1008.4 |
| 20260506025006 | 48 | 0 | 0.0 | 8.7 | 0.00 | 0.03 | 0.03 | 89 | 1008.3 |
| 20260506024006 | 48 | 0 | 0.0 | 7.8 | 0.00 | 0.03 | 0.03 | 89 | 1007.9 |
| 20260506022006 | 48 | 0 | 0.0 | 3.5 | 0.00 | 0.03 | 0.03 | 88 | 1007.9 |
| 20260506021006 | 48 | 0 | 0.0 | 3.5 | 0.00 | 0.03 | 0.03 | 87 | 1007.9 |
| 20260506020006 | 48 | 0 | 0.0 | 0.0 | 0.00 | 0.03 | 0.03 | 88 | 1007.5 |
| 20260506014006 | 48 | 0 | 0.0 | 0.0 | 0.02 | 0.03 | 0.03 | 87 | 1007.2 |
| 20260506013005 | 48 | 0 | 0.0 | 0.0 | 0.02 | 0.03 | 0.03 | 85 | 1007.1 |
| 20260506012006 | 48 | 0 | 0.0 | 0.0 | 0.02 | 0.03 | 0.03 | 83 | 1007.0 |
| 20260506011006 | 48 | 0 | 0.0 | 0.0 | 0.02 | 0.03 | 0.03 | 83 | 1007.1 |